Home   Weather   Urbana   Past weeks

Flag for USA Past Weather in Urbana, Illinois, USA — Yesterday and Last 2 Weeks

Now
76 °F

Sunny.


Feels Like: 76 °F
Forecast: 64 / 81 °F
Wind: 7 mph from Northwest

Location: University Of Illinois-Willard Airport

Current Time: Aug 30, 2016 at 7:29:10 PM

Latest Report: Aug 30, 2016 at 6:53 PM


Visibility: 10 mi

Pressure: 30.04 "Hg

Humidity: 85%

Dew Point: 71 °F

Location of UrbanaLocation

Past Weather in Urbana — Graph

°F

Urbana Temperature Yesterday

Maximum temperature yesterday: 87 °F (at 1:53 PM)
Minimum temperature yesterday: 69 °F (at 4:53 AM)
Average temperature yesterday: 78 °F

High & Low Weather Summary for the Past Weeks

 TemperatureHumidityPressure
High89 °F (Aug 28, 2:53 PM)100% (Aug 17, 6:53 AM)30.25 "Hg (Aug 17, 6:53 AM)
Low55 °F (Aug 22, 5:53 AM)52% (Aug 22, 1:53 PM)29.67 "Hg (Aug 20, 10:53 AM)
Average74 °F84%30.05 "Hg
* Reported Aug 15 5:53 PM — Aug 30 5:53 PM, Urbana, Weather by CustomWeather, © 2016

Note: Actual official high and low records may vary slightly from our data, if they occured in-between our weather recording intervals... More about our weather records

Advertising

Urbana Weather History for the Previous 24 Hours

Scroll right to see more
 ConditionsComfort  
Time TempWeatherWind HumidityBarometerVisibility
5:53 PM
Tue, Aug 30
78 °FSunny.8 mph82%30.05 "Hg10 mi
4:53 PM81 °FSunny.10 mph79%30.06 "Hg10 mi
3:53 PM83 °FScattered clouds.10 mph74%30.07 "Hg10 mi
2:53 PM84 °FSunny.5 mph72%30.07 "Hg10 mi
1:53 PM80 °FLight rain. Passing clouds.6 mph81%30.09 "Hg10 mi
12:53 PM81 °FSunny.6 mph77%30.10 "Hg10 mi
11:53 AM82 °FPassing clouds.No wind72%30.13 "Hg10 mi
10:53 AM82 °FSunny.6 mph70%30.15 "Hg10 mi
9:53 AM80 °FSunny.9 mph71%30.15 "Hg10 mi
8:53 AM75 °FSunny.13 mph82%30.16 "Hg10 mi
7:53 AM76 °FFog.No wind91%30.15 "Hg3 mi
6:53 AM71 °FFog.3 mph93%30.14 "Hg3 mi
5:53 AM70 °FFog.5 mph93%30.14 "Hg3 mi
4:53 AM71 °FFog.5 mph93%30.13 "Hg2 mi
3:53 AM72 °FFog.3 mph93%30.13 "Hg5 mi
2:53 AM71 °FFog.3 mph96%30.14 "Hg5 mi
1:53 AM72 °FClear.No wind93%30.15 "Hg7 mi
12:53 AM73 °FClear.No wind94%30.15 "Hg7 mi
11:53 PM
Mon, Aug 29
73 °FFog.5 mph94%30.15 "Hg4 mi
10:53 PM75 °FPassing clouds.5 mph90%30.15 "Hg7 mi
9:53 PM75 °FClear.3 mph90%30.15 "Hg7 mi
8:53 PM76 °FClear.No wind88%30.15 "Hg9 mi
7:53 PM79 °FSunny.5 mph82%30.13 "Hg10 mi
Weather by CustomWeather, © 2016

See weather overviewHow to use our weather pages